Covington, KY

12:48 AM EDT on April 30, 2017 (GMT -0400)
Cincinnati-Northern KY International

Weather History for KCVG - March, 2015

Change the Weather History Date:

Monday, March 23, 2015

  Actual Average Record
Temperature  
Mean Temperature 41 °F 46 °F  
Max Temperature 51 °F 56 °F 84 °F (1907)
Min Temperature 31 °F 36 °F 11 °F (1885)
Degree Days  
Heating Degree Days 24 19  
Month to date heating degree days 528 526  
Since 1 July heating degree days 4755 4353  
Cooling Degree Days 0 0  
Month to date cooling degree days 0 0  
Year to date cooling degree days 0 0  
Moisture  
Dew Point 20 °F    
Average Humidity 50    
Maximum Humidity 75    
Minimum Humidity 24    
Precipitation  
Precipitation 0.01 in 0.13 in 1.30 in (1975)
Month to date precipitation 5.35 2.83  
Year to date precipitation 9.50 8.64  
Snow  
Snow T in 0.10 in 3.50 in (1896)
Month to date snowfall 4.9 2.6  
Since 1 July snowfall 29.9 21.2  
Snow Depth 0.00 in    
Sea Level Pressure  
Sea Level Pressure 30.16 in    
Wind  
Wind Speed 12 mph (NE)    
Max Wind Speed 21 mph    
Max Gust Speed 25 mph    
Visibility 10 miles    
Events Rain    
T = Trace of Precipitation, MM = Missing Value Source: NWS Daily Summary

Daily Weather History Graph

Daily Weather History Graph

Search for Another Location

Airport or City:

Trip Planner

Search our weather history database for the weather conditions in past years. The results will help you decide how hot, cold, wet, or windy it might be!

Date:

Astronomy

Mar. 23, 2015 Rise Set
Actual Time 7:37 AM EDT 7:53 PM EDT
Civil Twilight 7:11 AM EDT 8:20 PM EDT
Nautical Twilight 6:39 AM EDT 8:51 PM EDT
Astronomical Twilight 6:08 AM EDT 9:23 PM EDT
Moon 9:48 AM EDT (3/23) 11:56 PM EDT (3/23)
Length of Visible Light 13h 08m
Length of Day
12h 15m
Waxing Crescent, 15% of the Moon is Illuminated
Mar 23
Waxing Crescent
Mar 27
First Quarter
Apr 4
Full
Apr 11
Last Quarter
Apr 18
New

Hourly Weather History & Observations

Time (EDT) Temp. Windchill Dew Point Humidity Pressure Visibility Wind Dir Wind Speed Gust Speed Precip Events Conditions
12:52 AM 37.9 °F 30.0 °F 16.0 °F 41% 30.17 in 10.0 mi ENE 12.7 mph - N/A   Scattered Clouds
1:52 AM 37.0 °F 28.5 °F 18.0 °F 46% 30.17 in 10.0 mi ENE 13.8 mph - N/A   Partly Cloudy
2:52 AM 35.1 °F 26.4 °F 18.0 °F 50% 30.18 in 10.0 mi NE 12.7 mph - N/A   Clear
3:52 AM 34.0 °F 24.6 °F 18.0 °F 52% 30.18 in 10.0 mi NE 13.8 mph - N/A   Partly Cloudy
4:52 AM 33.1 °F 23.9 °F 18.0 °F 54% 30.18 in 10.0 mi ENE 12.7 mph - N/A   Partly Cloudy
5:52 AM 32.0 °F 23.6 °F 17.1 °F 54% 30.18 in 10.0 mi ENE 10.4 mph - N/A   Partly Cloudy
6:52 AM 32.0 °F 24.2 °F 16.0 °F 52% 30.19 in 10.0 mi ENE 9.2 mph - N/A   Partly Cloudy
7:52 AM 30.9 °F 21.2 °F 12.9 °F 47% 30.20 in 10.0 mi ENE 12.7 mph - N/A   Mostly Cloudy
8:52 AM 32.0 °F 22.1 °F 14.0 °F 48% 30.22 in 10.0 mi ENE 13.8 mph - N/A   Mostly Cloudy
9:52 AM 35.1 °F 25.2 °F 15.1 °F 44% 30.19 in 10.0 mi East 16.1 mph - N/A   Partly Cloudy
10:52 AM 37.9 °F 30.9 °F 16.0 °F 41% 30.21 in 10.0 mi NE 10.4 mph - N/A   Partly Cloudy
11:52 AM 41.0 °F 34.7 °F 16.0 °F 36% 30.19 in 10.0 mi ENE 10.4 mph - N/A   Partly Cloudy
12:52 PM 45.0 °F 41.2 °F 16.0 °F 31% 30.18 in 10.0 mi NE 6.9 mph - N/A   Scattered Clouds
1:52 PM 48.0 °F - 16.0 °F 28% 30.15 in 10.0 mi ENE 8.1 mph - N/A   Mostly Cloudy
2:52 PM 50.0 °F - 16.0 °F 26% 30.13 in 10.0 mi NNE 9.2 mph - N/A   Mostly Cloudy
3:52 PM 48.9 °F - 16.0 °F 27% 30.10 in 10.0 mi Variable 4.6 mph - N/A   Overcast
4:52 PM 46.9 °F - 17.1 °F 30% 30.10 in 10.0 mi NNE 19.6 mph - N/A   Overcast
4:57 PM 46.4 °F 39.8 °F 19.4 °F 34% 30.10 in 10.0 mi NNE 16.1 mph - 0.00 in Rain Light Ice Pellets
5:02 PM 44.6 °F 37.4 °F 21.2 °F 39% 30.10 in 10.0 mi NNE 16.1 mph - 0.00 in Rain Light Rain
5:52 PM 41.0 °F 33.1 °F 23.0 °F 49% 30.10 in 10.0 mi ENE 15.0 mph - 0.00 in Rain Light Rain
6:52 PM 37.0 °F 28.1 °F 28.0 °F 70% 30.14 in 10.0 mi NNE 15.0 mph - 0.01 in   Overcast
7:06 PM 37.4 °F 28.5 °F 26.6 °F 65% 30.13 in 10.0 mi NE 15.0 mph - 0.00 in   Light Ice Pellets
7:14 PM 37.4 °F 29.3 °F 26.6 °F 65% 30.13 in 9.0 mi NNE 12.7 mph 19.6 mph 0.00 in Rain Light Rain
7:52 PM 35.1 °F 25.9 °F 26.1 °F 70% 30.16 in 10.0 mi NE 13.8 mph 21.9 mph 0.00 in   Overcast
8:52 PM 34.0 °F 24.2 °F 26.1 °F 73% 30.16 in 10.0 mi NE 15.0 mph - N/A   Overcast
9:52 PM 34.0 °F 27.2 °F 26.1 °F 73% 30.17 in 10.0 mi NE 8.1 mph - N/A   Overcast
10:52 PM 33.1 °F 23.0 °F 26.1 °F 75% 30.17 in 10.0 mi ENE 15.0 mph - N/A   Overcast
11:52 PM 33.1 °F 24.4 °F 27.0 °F 78% 30.17 in 10.0 mi NNE 11.5 mph - N/A   Overcast